Time,TemperatureF,DewpointF,PressureIn,WindDirection,WindDirectionDegrees,WindSpeedMPH,WindSpeedGustMPH,Humidity,HourlyPrecipIn,Conditions,Clouds,dailyrainin,SoftwareType,DateUTC
2013-08-18 00:01:00,74.9,57.2,29.95,ENE,64,1.0,3.0,54,0.00,,SKC,0.00,VWS V14.01,2013-08-18 05:01:00,
2013-08-18 00:06:00,74.9,57.2,29.95,ENE,64,1.0,1.0,54,0.00,,SKC,0.00,VWS V14.01,2013-08-18 05:06:00,
2013-08-18 00:11:00,74.7,57.0,29.96,ENE,64,0.0,0.0,54,0.00,,SKC,0.00,VWS V14.01,2013-08-18 05:11:00,
2013-08-18 00:16:00,74.5,57.3,29.96,ENE,64,0.0,0.0,55,0.00,,SKC,0.00,VWS V14.01,2013-08-18 05:16:00,
2013-08-18 00:21:00,74.2,57.0,29.96,ENE,64,0.0,0.0,55,0.00,,SKC,0.00,VWS V14.01,2013-08-18 05:21:00,
2013-08-18 00:26:00,73.8,56.6,29.96,ENE,64,0.0,0.0,55,0.00,,SKC,0.00,VWS V14.01,2013-08-18 05:26:00,
2013-08-18 00:31:00,73.5,56.9,29.96,ENE,64,0.0,0.0,56,0.00,,SKC,0.00,VWS V14.01,2013-08-18 05:31:00,
2013-08-18 00:36:00,73.3,56.7,29.96,ENE,64,0.0,0.0,56,0.00,,SKC,0.00,VWS V14.01,2013-08-18 05:36:00,
2013-08-18 00:41:00,73.1,57.0,29.96,ENE,64,0.0,0.0,57,0.00,,SKC,0.00,VWS V14.01,2013-08-18 05:41:00,
2013-08-18 00:46:00,72.9,56.8,29.95,ENE,64,0.0,0.0,57,0.00,,SKC,0.00,VWS V14.01,2013-08-18 05:46:00,
2013-08-18 00:51:00,72.8,56.7,29.95,ENE,64,0.0,1.0,57,0.00,,SKC,0.00,VWS V14.01,2013-08-18 05:51:00,
2013-08-18 00:56:00,72.8,56.7,29.95,ENE,64,0.0,1.0,57,0.00,,SKC,0.00,VWS V14.01,2013-08-18 05:56:00,
2013-08-18 01:01:00,72.7,56.6,29.95,ENE,64,1.0,1.0,57,0.00,,SKC,0.00,VWS V14.01,2013-08-18 06:01:00,
2013-08-18 01:06:00,72.7,56.6,29.95,ENE,64,0.0,0.0,57,0.00,,SKC,0.00,VWS V14.01,2013-08-18 06:06:00,
2013-08-18 01:11:00,72.6,56.5,29.95,ENE,64,0.0,0.0,57,0.00,,SKC,0.00,VWS V14.01,2013-08-18 06:11:00,
2013-08-18 01:16:00,72.6,56.5,29.95,ENE,63,0.0,0.0,57,0.00,,SKC,0.00,VWS V14.01,2013-08-18 06:16:00,
2013-08-18 01:21:00,72.6,56.5,29.95,ENE,69,0.0,1.0,57,0.00,,SKC,0.00,VWS V14.01,2013-08-18 06:21:00,
2013-08-18 01:26:00,72.6,56.5,29.95,ENE,69,0.0,0.0,57,0.00,,SKC,0.00,VWS V14.01,2013-08-18 06:26:00,
2013-08-18 01:31:00,72.7,56.6,29.95,ENE,69,1.0,3.0,57,0.00,,SKC,0.00,VWS V14.01,2013-08-18 06:31:00,
2013-08-18 01:36:00,72.8,56.7,29.95,ENE,68,0.0,0.0,57,0.00,,SKC,0.00,VWS V14.01,2013-08-18 06:36:00,
2013-08-18 01:41:00,72.8,56.7,29.95,ENE,69,1.0,1.0,57,0.00,,SKC,0.00,VWS V14.01,2013-08-18 06:41:00,
2013-08-18 01:46:00,72.9,56.3,29.95,ENE,69,2.0,2.0,56,0.00,,SKC,0.00,VWS V14.01,2013-08-18 06:46:00,
2013-08-18 01:51:00,73.0,56.4,29.96,ENE,69,0.0,0.0,56,0.00,,SKC,0.00,VWS V14.01,2013-08-18 06:51:00,
2013-08-18 01:56:00,72.8,56.2,29.95,ENE,69,0.0,0.0,56,0.00,,SKC,0.00,VWS V14.01,2013-08-18 06:56:00,
2013-08-18 02:01:00,72.5,56.4,29.95,ENE,69,0.0,0.0,57,0.00,,SKC,0.00,VWS V14.01,2013-08-18 07:01:00,
2013-08-18 02:06:00,72.2,56.1,29.95,ENE,69,0.0,0.0,57,0.00,,SKC,0.00,VWS V14.01,2013-08-18 07:06:00,
2013-08-18 02:11:00,71.7,56.2,29.95,ENE,69,0.0,0.0,58,0.00,,SKC,0.00,VWS V14.01,2013-08-18 07:11:00,
2013-08-18 02:16:00,71.3,56.2,29.95,ENE,69,0.0,0.0,59,0.00,,SKC,0.00,VWS V14.01,2013-08-18 07:16:00,
2013-08-18 02:21:00,71.0,56.4,29.95,ENE,69,0.0,0.0,60,0.00,,SKC,0.00,VWS V14.01,2013-08-18 07:21:00,
2013-08-18 02:26:00,70.8,56.2,29.95,ENE,69,0.0,0.0,60,0.00,,SKC,0.00,VWS V14.01,2013-08-18 07:26:00,
2013-08-18 02:31:00,70.8,56.2,29.95,ENE,69,0.0,0.0,60,0.00,,SKC,0.00,VWS V14.01,2013-08-18 07:31:00,
2013-08-18 02:36:00,70.9,56.3,29.95,ENE,69,0.0,0.0,60,0.00,,SKC,0.00,VWS V14.01,2013-08-18 07:36:00,
2013-08-18 02:41:00,70.9,56.3,29.94,ENE,69,0.0,0.0,60,0.00,,SKC,0.00,VWS V14.01,2013-08-18 07:41:00,
2013-08-18 02:46:00,70.7,56.2,29.94,ENE,69,0.0,0.0,60,0.00,,SKC,0.00,VWS V14.01,2013-08-18 07:46:00,
2013-08-18 02:51:00,70.4,56.3,29.94,ENE,69,0.0,0.0,61,0.00,,SKC,0.00,VWS V14.01,2013-08-18 07:51:00,
2013-08-18 02:56:00,69.7,56.1,29.94,ENE,69,0.0,0.0,62,0.00,,SKC,0.00,VWS V14.01,2013-08-18 07:56:00,
2013-08-18 03:01:00,69.1,56.0,29.94,ENE,69,0.0,0.0,63,0.00,,SKC,0.00,VWS V14.01,2013-08-18 08:01:00,
2013-08-18 03:06:00,68.9,55.8,29.94,ENE,69,0.0,0.0,63,0.00,,SKC,0.00,VWS V14.01,2013-08-18 08:06:00,
2013-08-18 03:11:00,69.1,56.0,29.94,ENE,69,0.0,0.0,63,0.00,,SKC,0.00,VWS V14.01,2013-08-18 08:11:00,
2013-08-18 03:16:00,69.1,56.0,29.94,ENE,69,0.0,0.0,63,0.00,,SKC,0.00,VWS V14.01,2013-08-18 08:16:00,
2013-08-18 03:21:00,69.4,55.8,29.94,ENE,69,0.0,0.0,62,0.00,,SKC,0.00,VWS V14.01,2013-08-18 08:21:00,
2013-08-18 03:26:00,69.7,56.1,29.94,ENE,69,0.0,0.0,62,0.00,,SKC,0.00,VWS V14.01,2013-08-18 08:26:00,
2013-08-18 03:31:00,69.8,55.8,29.94,ENE,69,0.0,0.0,61,0.00,,SKC,0.00,VWS V14.01,2013-08-18 08:31:00,
2013-08-18 03:36:00,69.7,55.7,29.94,ENE,69,0.0,0.0,61,0.00,,SKC,0.00,VWS V14.01,2013-08-18 08:36:00,
2013-08-18 03:41:00,69.7,55.7,29.94,ENE,69,0.0,0.0,61,0.00,,SKC,0.00,VWS V14.01,2013-08-18 08:41:00,
2013-08-18 03:46:00,69.6,56.0,29.94,ENE,69,0.0,0.0,62,0.00,,SKC,0.00,VWS V14.01,2013-08-18 08:46:00,
2013-08-18 03:51:00,69.4,55.8,29.94,ENE,69,0.0,0.0,62,0.00,,SKC,0.00,VWS V14.01,2013-08-18 08:51:00,
2013-08-18 03:56:00,69.3,55.7,29.94,ENE,69,0.0,0.0,62,0.00,,SKC,0.00,VWS V14.01,2013-08-18 08:56:00,
2013-08-18 04:01:00,69.4,55.8,29.94,ENE,69,0.0,0.0,62,0.00,,SKC,0.00,VWS V14.01,2013-08-18 09:01:00,
2013-08-18 04:06:00,69.5,55.5,29.93,ENE,70,0.0,0.0,61,0.00,,SKC,0.00,VWS V14.01,2013-08-18 09:06:00,
2013-08-18 04:11:00,69.7,55.7,29.93,ENE,70,0.0,0.0,61,0.00,,SKC,0.00,VWS V14.01,2013-08-18 09:11:00,
2013-08-18 04:16:00,69.7,55.7,29.93,ENE,70,0.0,0.0,61,0.00,,SKC,0.00,VWS V14.01,2013-08-18 09:16:00,
2013-08-18 04:21:00,69.7,55.7,29.93,ENE,70,0.0,0.0,61,0.00,,SKC,0.00,VWS V14.01,2013-08-18 09:21:00,
2013-08-18 04:26:00,69.5,55.5,29.93,ENE,70,0.0,0.0,61,0.00,,SKC,0.00,VWS V14.01,2013-08-18 09:26:00,
2013-08-18 04:31:00,69.4,55.4,29.93,ENE,69,0.0,0.0,61,0.00,,SKC,0.00,VWS V14.01,2013-08-18 09:31:00,
2013-08-18 04:36:00,69.1,55.1,29.93,ENE,70,0.0,0.0,61,0.00,,SKC,0.00,VWS V14.01,2013-08-18 09:36:00,
2013-08-18 04:41:00,69.0,55.0,29.93,ENE,70,0.0,0.0,61,0.00,,SKC,0.00,VWS V14.01,2013-08-18 09:41:00,
2013-08-18 04:46:00,68.9,54.9,29.93,ENE,69,0.0,0.0,61,0.00,,SKC,0.00,VWS V14.01,2013-08-18 09:46:00,
2013-08-18 04:51:00,69.0,55.0,29.93,ENE,69,0.0,0.0,61,0.00,,SKC,0.00,VWS V14.01,2013-08-18 09:51:00,
2013-08-18 04:56:00,68.6,55.1,29.93,ENE,70,0.0,0.0,62,0.00,,SKC,0.00,VWS V14.01,2013-08-18 09:56:00,
2013-08-18 05:01:00,68.3,55.2,29.93,ENE,70,0.0,0.0,63,0.00,,SKC,0.00,VWS V14.01,2013-08-18 10:01:00,
2013-08-18 05:06:00,67.8,55.2,29.93,ENE,69,0.0,0.0,64,0.00,,SKC,0.00,VWS V14.01,2013-08-18 10:06:00,
2013-08-18 05:11:00,67.6,55.0,29.93,ENE,69,0.0,0.0,64,0.00,,SKC,0.00,VWS V14.01,2013-08-18 10:11:00,
2013-08-18 05:16:00,67.7,55.1,29.93,ENE,70,0.0,0.0,64,0.00,,SKC,0.00,VWS V14.01,2013-08-18 10:16:00,
2013-08-18 05:21:00,67.8,55.2,29.93,ENE,70,0.0,0.0,64,0.00,,SKC,0.00,VWS V14.01,2013-08-18 10:21:00,
2013-08-18 05:26:00,67.9,55.3,29.93,ENE,70,0.0,0.0,64,0.00,,SKC,0.00,VWS V14.01,2013-08-18 10:26:00,
2013-08-18 05:31:00,67.9,55.3,29.93,ENE,69,0.0,0.0,64,0.00,,SKC,0.00,VWS V14.01,2013-08-18 10:31:00,
2013-08-18 05:36:00,67.4,54.8,29.93,ENE,69,0.0,0.0,64,0.00,,SKC,0.00,VWS V14.01,2013-08-18 10:36:00,
2013-08-18 05:41:00,66.6,54.5,29.93,ENE,65,1.0,1.0,65,0.00,,SKC,0.00,VWS V14.01,2013-08-18 10:41:00,
2013-08-18 05:46:00,65.9,54.7,29.93,ENE,65,0.0,0.0,67,0.00,,SKC,0.00,VWS V14.01,2013-08-18 10:46:00,
2013-08-18 05:51:00,65.8,54.5,29.93,ENE,65,0.0,0.0,67,0.00,,SKC,0.00,VWS V14.01,2013-08-18 10:51:00,
2013-08-18 05:56:00,66.1,54.8,29.93,ENE,65,0.0,0.0,67,0.00,,SKC,0.00,VWS V14.01,2013-08-18 10:56:00,
2013-08-18 06:01:00,66.1,54.8,29.93,ENE,65,0.0,0.0,67,0.00,,SKC,0.00,VWS V14.01,2013-08-18 11:01:00,
2013-08-18 06:06:00,65.8,54.5,29.93,ENE,65,0.0,0.0,67,0.00,,SKC,0.00,VWS V14.01,2013-08-18 11:06:00,
2013-08-18 06:11:00,65.3,54.5,29.93,ENE,65,0.0,0.0,68,0.00,,SKC,0.00,VWS V14.01,2013-08-18 11:11:00,
2013-08-18 06:16:00,65.2,54.8,29.93,ENE,65,1.0,1.0,69,0.00,,SKC,0.00,VWS V14.01,2013-08-18 11:16:00,
2013-08-18 06:21:00,65.1,54.7,29.93,ENE,65,0.0,0.0,69,0.00,,SKC,0.00,VWS V14.01,2013-08-18 11:21:00,
2013-08-18 06:26:00,65.2,54.8,29.93,ENE,65,0.0,0.0,69,0.00,,SKC,0.00,VWS V14.01,2013-08-18 11:26:00,
2013-08-18 06:31:00,65.3,54.9,29.93,ENE,65,0.0,0.0,69,0.00,,SKC,0.00,VWS V14.01,2013-08-18 11:31:00,
2013-08-18 06:36:00,65.3,54.9,29.93,ENE,65,0.0,0.0,69,0.00,,SKC,0.00,VWS V14.01,2013-08-18 11:36:00,
2013-08-18 06:41:00,65.2,54.8,29.93,ENE,65,0.0,0.0,69,0.00,,SKC,0.00,VWS V14.01,2013-08-18 11:41:00,
2013-08-18 06:46:00,65.0,54.6,29.93,ENE,65,0.0,0.0,69,0.00,,SKC,0.00,VWS V14.01,2013-08-18 11:46:00,
2013-08-18 06:51:00,64.9,54.5,29.94,ENE,65,0.0,0.0,69,0.00,,SKC,0.00,VWS V14.01,2013-08-18 11:51:00,
2013-08-18 06:56:00,65.0,54.6,29.94,ENE,65,0.0,0.0,69,0.00,,SKC,0.00,VWS V14.01,2013-08-18 11:56:00,
2013-08-18 07:01:00,65.2,54.8,29.94,ENE,65,0.0,0.0,69,0.00,,SKC,0.00,VWS V14.01,2013-08-18 12:01:00,
2013-08-18 07:06:00,65.3,54.9,29.94,ENE,65,0.0,0.0,69,0.00,,SKC,0.00,VWS V14.01,2013-08-18 12:06:00,
2013-08-18 07:11:00,65.3,54.5,29.94,ENE,64,2.0,2.0,68,0.00,,SKC,0.00,VWS V14.01,2013-08-18 12:11:00,
2013-08-18 07:16:00,65.0,54.6,29.94,ENE,65,0.0,0.0,69,0.00,,SKC,0.00,VWS V14.01,2013-08-18 12:16:00,
2013-08-18 07:21:00,65.1,54.7,29.94,ENE,64,0.0,1.0,69,0.00,,SKC,0.00,VWS V14.01,2013-08-18 12:21:00,
2013-08-18 07:26:00,64.9,54.5,29.94,NW,317,0.0,1.0,69,0.00,,SKC,0.00,VWS V14.01,2013-08-18 12:26:00,
2013-08-18 07:31:00,64.5,54.5,29.94,NW,317,1.0,1.0,70,0.00,,SKC,0.00,VWS V14.01,2013-08-18 12:31:00,
2013-08-18 07:36:00,64.4,54.4,29.94,NW,317,2.0,2.0,70,0.00,,SKC,0.00,VWS V14.01,2013-08-18 12:36:00,
2013-08-18 07:41:00,64.4,54.8,29.95,NW,317,1.0,2.0,71,0.00,,SKC,0.00,VWS V14.01,2013-08-18 12:41:00,
2013-08-18 07:46:00,64.8,54.8,29.94,NW,317,0.0,0.0,70,0.00,,SKC,0.00,VWS V14.01,2013-08-18 12:46:00,
2013-08-18 07:51:00,65.0,55.0,29.95,NW,317,1.0,1.0,70,0.00,,SKC,0.00,VWS V14.01,2013-08-18 12:51:00,
2013-08-18 07:56:00,65.2,55.2,29.95,NW,317,0.0,0.0,70,0.00,,SKC,0.00,VWS V14.01,2013-08-18 12:56:00,
2013-08-18 08:01:00,65.6,55.6,29.95,NW,317,0.0,0.0,70,0.00,,SKC,0.00,VWS V14.01,2013-08-18 13:01:00,
2013-08-18 08:06:00,65.9,55.5,29.96,NW,317,0.0,0.0,69,0.00,,SKC,0.00,VWS V14.01,2013-08-18 13:06:00,
2013-08-18 08:11:00,66.4,56.3,29.96,NW,317,0.0,0.0,70,0.00,,SKC,0.00,VWS V14.01,2013-08-18 13:11:00,
2013-08-18 08:16:00,67.4,56.9,29.97,NW,317,0.0,0.0,69,0.00,,SKC,0.00,VWS V14.01,2013-08-18 13:16:00,
2013-08-18 08:21:00,68.5,57.1,29.97,NW,317,0.0,0.0,67,0.00,,SKC,0.00,VWS V14.01,2013-08-18 13:21:00,
2013-08-18 08:26:00,69.6,57.3,29.97,NW,317,0.0,0.0,65,0.00,,SKC,0.00,VWS V14.01,2013-08-18 13:26:00,
2013-08-18 08:31:00,70.5,57.3,29.97,NW,317,0.0,0.0,63,0.00,,SKC,0.00,VWS V14.01,2013-08-18 13:31:00,
2013-08-18 08:36:00,71.6,57.0,29.97,NW,317,0.0,0.0,60,0.00,,SKC,0.00,VWS V14.01,2013-08-18 13:36:00,
2013-08-18 08:41:00,72.6,57.0,29.97,NW,317,0.0,0.0,58,0.00,,SKC,0.00,VWS V14.01,2013-08-18 13:41:00,
2013-08-18 08:46:00,73.0,56.9,29.98,WNW,290,0.0,0.0,57,0.00,,SKC,0.00,VWS V14.01,2013-08-18 13:46:00,
2013-08-18 08:51:00,73.5,57.3,29.98,WNW,290,0.0,1.0,57,0.00,,SKC,0.00,VWS V14.01,2013-08-18 13:51:00,
2013-08-18 08:56:00,74.1,56.9,29.98,South,172,2.0,2.0,55,0.00,,SKC,0.00,VWS V14.01,2013-08-18 13:56:00,
2013-08-18 09:01:00,74.7,57.0,29.99,SSE,167,0.0,0.0,54,0.00,,SKC,0.00,VWS V14.01,2013-08-18 14:01:00,
2013-08-18 09:06:00,75.3,57.5,29.99,SSE,167,2.0,2.0,54,0.00,,SKC,0.00,VWS V14.01,2013-08-18 14:06:00,
2013-08-18 09:11:00,75.6,57.3,29.99,South,178,1.0,1.0,53,0.00,,SKC,0.00,VWS V14.01,2013-08-18 14:11:00,
2013-08-18 09:16:00,76.1,58.3,29.99,South,178,0.0,0.0,54,0.00,,SKC,0.00,VWS V14.01,2013-08-18 14:16:00,
2013-08-18 09:21:00,76.7,58.3,29.99,South,178,0.0,0.0,53,0.00,,SKC,0.00,VWS V14.01,2013-08-18 14:21:00,
2013-08-18 09:26:00,77.4,59.5,29.99,SSW,203,3.0,3.0,54,0.00,,SKC,0.00,VWS V14.01,2013-08-18 14:26:00,
2013-08-18 09:31:00,78.1,60.6,29.99,SSW,203,0.0,1.0,55,0.00,,SKC,0.00,VWS V14.01,2013-08-18 14:31:00,
2013-08-18 09:36:00,78.7,62.2,29.99,South,188,4.0,4.0,57,0.00,,SKC,0.00,VWS V14.01,2013-08-18 14:36:00,
2013-08-18 09:41:00,79.2,62.7,29.99,WSW,257,2.0,3.0,57,0.00,,SKC,0.00,VWS V14.01,2013-08-18 14:41:00,
2013-08-18 09:46:00,79.2,63.2,29.99,WSW,248,2.0,4.0,58,0.00,,SKC,0.00,VWS V14.01,2013-08-18 14:46:00,
2013-08-18 09:51:00,79.1,63.1,29.99,WSW,244,1.0,2.0,58,0.00,,SKC,0.00,VWS V14.01,2013-08-18 14:51:00,
2013-08-18 09:56:00,79.6,62.5,29.99,West,259,0.0,3.0,56,0.00,,SKC,0.00,VWS V14.01,2013-08-18 14:56:00,
2013-08-18 10:01:00,80.1,63.5,29.99,WNW,287,0.0,1.0,57,0.00,,SKC,0.00,VWS V14.01,2013-08-18 15:01:00,
2013-08-18 10:06:00,80.1,63.0,29.99,WSW,253,0.0,0.0,56,0.00,,SKC,0.00,VWS V14.01,2013-08-18 15:06:00,
2013-08-18 10:11:00,80.9,63.2,29.99,SSW,200,4.0,4.0,55,0.00,,SKC,0.00,VWS V14.01,2013-08-18 15:11:00,
2013-08-18 10:16:00,81.4,62.1,29.99,South,186,2.0,3.0,52,0.00,,SKC,0.00,VWS V14.01,2013-08-18 15:16:00,
2013-08-18 10:21:00,81.5,61.1,29.99,South,175,4.0,5.0,50,0.00,,SKC,0.00,VWS V14.01,2013-08-18 15:21:00,
2013-08-18 10:26:00,81.3,60.9,29.99,SSE,163,0.0,0.0,50,0.00,,SKC,0.00,VWS V14.01,2013-08-18 15:26:00,
2013-08-18 10:31:00,81.9,61.5,29.99,South,171,2.0,3.0,50,0.00,,SKC,0.00,VWS V14.01,2013-08-18 15:31:00,
2013-08-18 10:36:00,82.4,61.9,29.99,South,169,7.0,7.0,50,0.00,,SKC,0.00,VWS V14.01,2013-08-18 15:36:00,
2013-08-18 10:41:00,82.5,62.0,29.99,SSE,163,0.0,1.0,50,0.00,,SKC,0.00,VWS V14.01,2013-08-18 15:41:00,
2013-08-18 10:46:00,82.8,62.3,29.99,WSW,252,0.0,0.0,50,0.00,,SKC,0.00,VWS V14.01,2013-08-18 15:46:00,
2013-08-18 10:51:00,83.3,62.7,29.99,West,273,0.0,1.0,50,0.00,,SKC,0.00,VWS V14.01,2013-08-18 15:51:00,
2013-08-18 10:56:00,83.8,63.2,29.99,SSW,205,6.0,9.0,50,0.00,,SKC,0.00,VWS V14.01,2013-08-18 15:56:00,
2013-08-18 11:01:00,83.4,62.8,29.99,WNW,285,1.0,2.0,50,0.00,,SKC,0.00,VWS V14.01,2013-08-18 16:01:00,
2013-08-18 11:06:00,83.2,62.1,29.99,South,190,6.0,6.0,49,0.00,,SKC,0.00,VWS V14.01,2013-08-18 16:06:00,
2013-08-18 11:11:00,82.9,61.8,29.99,SSE,157,2.0,3.0,49,0.00,,SKC,0.00,VWS V14.01,2013-08-18 16:11:00,
2013-08-18 11:16:00,83.1,62.0,29.99,South,175,3.0,4.0,49,0.00,,SKC,0.00,VWS V14.01,2013-08-18 16:16:00,
2013-08-18 11:21:00,83.4,61.7,29.99,ESE,105,0.0,1.0,48,0.00,,SKC,0.00,VWS V14.01,2013-08-18 16:21:00,
2013-08-18 11:26:00,83.8,61.4,29.99,NE,52,1.0,4.0,47,0.00,,SKC,0.00,VWS V14.01,2013-08-18 16:26:00,
2013-08-18 11:31:00,84.3,61.9,29.99,SE,144,2.0,3.0,47,0.00,,SKC,0.00,VWS V14.01,2013-08-18 16:31:00,
2013-08-18 11:36:00,84.1,61.7,29.99,SSE,167,3.0,4.0,47,0.00,,SKC,0.00,VWS V14.01,2013-08-18 16:36:00,
2013-08-18 11:41:00,84.4,62.0,29.99,SSE,167,1.0,1.0,47,0.00,,SKC,0.00,VWS V14.01,2013-08-18 16:41:00,
2013-08-18 11:46:00,85.0,61.9,29.99,SSE,164,4.0,4.0,46,0.00,,SKC,0.00,VWS V14.01,2013-08-18 16:46:00,
2013-08-18 11:51:00,85.8,62.7,29.99,SSE,164,0.0,1.0,46,0.00,,SKC,0.00,VWS V14.01,2013-08-18 16:51:00,
2013-08-18 11:56:00,86.6,61.5,29.99,NE,50,3.0,4.0,43,0.00,,SKC,0.00,VWS V14.01,2013-08-18 16:56:00,
2013-08-18 12:01:00,86.5,60.7,29.99,WSW,249,1.0,1.0,42,0.00,,SKC,0.00,VWS V14.01,2013-08-18 17:01:00,
2013-08-18 12:06:00,86.8,61.6,29.98,East,93,1.0,3.0,43,0.00,,SKC,0.00,VWS V14.01,2013-08-18 17:06:00,
2013-08-18 12:11:00,87.2,61.3,29.98,South,178,0.0,0.0,42,0.00,,SKC,0.00,VWS V14.01,2013-08-18 17:11:00,
2013-08-18 12:16:00,87.5,61.6,29.98,SSW,207,6.0,9.0,42,0.00,,SKC,0.00,VWS V14.01,2013-08-18 17:16:00,
2013-08-18 12:21:00,87.3,61.4,29.98,South,179,2.0,5.0,42,0.00,,SKC,0.00,VWS V14.01,2013-08-18 17:21:00,
2013-08-18 12:26:00,87.4,60.8,29.98,SSW,194,2.0,2.0,41,0.00,,SKC,0.00,VWS V14.01,2013-08-18 17:26:00,
2013-08-18 12:31:00,87.7,61.1,29.98,West,268,1.0,1.0,41,0.00,,SKC,0.00,VWS V14.01,2013-08-18 17:31:00,
2013-08-18 12:36:00,87.6,61.0,29.97,South,191,1.0,1.0,41,0.00,,SKC,0.00,VWS V14.01,2013-08-18 17:36:00,
2013-08-18 12:41:00,88.3,60.2,29.97,South,183,6.0,6.0,39,0.00,,SKC,0.00,VWS V14.01,2013-08-18 17:41:00,
2013-08-18 12:46:00,88.3,60.2,29.97,SSE,167,1.0,2.0,39,0.00,,SKC,0.00,VWS V14.01,2013-08-18 17:46:00,
2013-08-18 12:51:00,88.8,60.7,29.97,WNW,294,0.0,1.0,39,0.00,,SKC,0.00,VWS V14.01,2013-08-18 17:51:00,
2013-08-18 12:56:00,89.4,59.0,29.97,East,88,0.0,3.0,36,0.00,,SKC,0.00,VWS V14.01,2013-08-18 17:56:00,
2013-08-18 13:01:00,89.4,58.2,29.97,SE,126,5.0,5.0,35,0.00,,SKC,0.00,VWS V14.01,2013-08-18 18:01:00,
2013-08-18 13:06:00,89.1,58.7,29.97,SE,138,1.0,3.0,36,0.00,,SKC,0.00,VWS V14.01,2013-08-18 18:06:00,
2013-08-18 13:11:00,89.5,59.0,29.96,ENE,57,2.0,2.0,36,0.00,,SKC,0.00,VWS V14.01,2013-08-18 18:11:00,
2013-08-18 13:16:00,90.1,58.8,29.96,ENE,58,6.0,11.0,35,0.00,,SKC,0.00,VWS V14.01,2013-08-18 18:16:00,
2013-08-18 13:21:00,90.4,59.0,29.96,NE,52,3.0,8.0,35,0.00,,SKC,0.00,VWS V14.01,2013-08-18 18:21:00,
2013-08-18 13:26:00,90.4,59.0,29.96,North,5,4.0,5.0,35,0.00,,SKC,0.00,VWS V14.01,2013-08-18 18:26:00,
2013-08-18 13:31:00,90.5,59.9,29.96,ENE,57,3.0,3.0,36,0.00,,SKC,0.00,VWS V14.01,2013-08-18 18:31:00,
2013-08-18 13:36:00,91.0,59.6,29.96,NE,43,5.0,9.0,35,0.00,,SKC,0.00,VWS V14.01,2013-08-18 18:36:00,
2013-08-18 13:41:00,91.2,59.8,29.96,NE,51,2.0,4.0,35,0.00,,SKC,0.00,VWS V14.01,2013-08-18 18:41:00,
2013-08-18 13:46:00,91.3,60.6,29.96,West,270,0.0,0.0,36,0.00,,SKC,0.00,VWS V14.01,2013-08-18 18:46:00,
2013-08-18 13:51:00,91.8,59.5,29.95,ESE,121,4.0,5.0,34,0.00,,SKC,0.00,VWS V14.01,2013-08-18 18:51:00,
2013-08-18 13:56:00,91.7,59.4,29.95,ESE,115,1.0,2.0,34,0.00,,SKC,0.00,VWS V14.01,2013-08-18 18:56:00,
2013-08-18 14:01:00,91.2,58.9,29.95,SE,145,2.0,2.0,34,0.00,,SKC,0.00,VWS V14.01,2013-08-18 19:01:00,
2013-08-18 14:06:00,91.1,58.8,29.95,NE,40,3.0,3.0,34,0.00,,SKC,0.00,VWS V14.01,2013-08-18 19:06:00,
2013-08-18 14:11:00,91.4,58.3,29.95,East,91,5.0,7.0,33,0.00,,SKC,0.00,VWS V14.01,2013-08-18 19:11:00,
2013-08-18 14:16:00,91.4,57.4,29.95,NE,40,1.0,4.0,32,0.00,,SKC,0.00,VWS V14.01,2013-08-18 19:16:00,
2013-08-18 14:21:00,91.5,57.5,29.94,East,83,2.0,4.0,32,0.00,,SKC,0.00,VWS V14.01,2013-08-18 19:21:00,
2013-08-18 14:26:00,91.3,58.2,29.94,SSE,152,3.0,4.0,33,0.00,,SKC,0.00,VWS V14.01,2013-08-18 19:26:00,
2013-08-18 14:31:00,91.7,58.5,29.94,SE,144,7.0,10.0,33,0.00,,SKC,0.00,VWS V14.01,2013-08-18 19:31:00,
2013-08-18 14:36:00,91.6,58.5,29.95,East,99,0.0,1.0,33,0.00,,SKC,0.00,VWS V14.01,2013-08-18 19:36:00,
2013-08-18 14:41:00,91.3,58.2,29.94,NNE,24,0.0,0.0,33,0.00,,SKC,0.00,VWS V14.01,2013-08-18 19:41:00,
2013-08-18 14:46:00,91.7,57.7,29.94,NE,48,4.0,5.0,32,0.00,,SKC,0.00,VWS V14.01,2013-08-18 19:46:00,
2013-08-18 14:51:00,92.0,57.9,29.94,East,86,4.0,5.0,32,0.00,,SKC,0.00,VWS V14.01,2013-08-18 19:51:00,
2013-08-18 14:56:00,91.9,57.9,29.94,ENE,76,2.0,5.0,32,0.00,,SKC,0.00,VWS V14.01,2013-08-18 19:56:00,
2013-08-18 15:01:00,91.8,57.8,29.94,East,91,7.0,11.0,32,0.00,,SKC,0.00,VWS V14.01,2013-08-18 20:01:00,
2013-08-18 15:06:00,91.4,58.3,29.94,East,101,4.0,4.0,33,0.00,,SKC,0.00,VWS V14.01,2013-08-18 20:06:00,
2013-08-18 15:11:00,92.0,58.8,29.94,ENE,58,10.0,12.0,33,0.00,,SKC,0.00,VWS V14.01,2013-08-18 20:11:00,
2013-08-18 15:16:00,92.3,59.1,29.94,NE,44,4.0,5.0,33,0.00,,SKC,0.00,VWS V14.01,2013-08-18 20:16:00,
2013-08-18 15:21:00,91.8,58.6,29.94,NNW,343,1.0,2.0,33,0.00,,SKC,0.00,VWS V14.01,2013-08-18 20:21:00,
2013-08-18 15:26:00,91.0,57.9,29.94,NE,40,4.0,6.0,33,0.00,,SKC,0.00,VWS V14.01,2013-08-18 20:26:00,
2013-08-18 15:31:00,91.1,58.8,29.93,SE,138,5.0,5.0,34,0.00,,SKC,0.00,VWS V14.01,2013-08-18 20:31:00,
2013-08-18 15:36:00,92.0,58.8,29.93,East,86,5.0,6.0,33,0.00,,SKC,0.00,VWS V14.01,2013-08-18 20:36:00,
2013-08-18 15:41:00,92.2,59.0,29.93,ESE,114,3.0,9.0,33,0.00,,SKC,0.00,VWS V14.01,2013-08-18 20:41:00,
2013-08-18 15:46:00,92.5,59.2,29.93,SSE,149,5.0,5.0,33,0.00,,SKC,0.00,VWS V14.01,2013-08-18 20:46:00,
2013-08-18 15:51:00,92.8,58.6,29.93,SE,136,3.0,3.0,32,0.00,,SKC,0.00,VWS V14.01,2013-08-18 20:51:00,
2013-08-18 15:56:00,93.3,59.1,29.93,ENE,57,10.0,10.0,32,0.00,,SKC,0.00,VWS V14.01,2013-08-18 20:56:00,
2013-08-18 16:01:00,92.7,58.5,29.93,ENE,59,5.0,6.0,32,0.00,,SKC,0.00,VWS V14.01,2013-08-18 21:01:00,
2013-08-18 16:06:00,91.9,58.7,29.93,ENE,61,8.0,8.0,33,0.00,,SKC,0.00,VWS V14.01,2013-08-18 21:06:00,
2013-08-18 16:11:00,91.3,59.0,29.93,ENE,57,5.0,7.0,34,0.00,,SKC,0.00,VWS V14.01,2013-08-18 21:11:00,
2013-08-18 16:16:00,90.9,58.7,29.93,NE,45,3.0,5.0,34,0.00,,SKC,0.00,VWS V14.01,2013-08-18 21:16:00,
2013-08-18 16:21:00,90.4,59.0,29.92,ENE,62,4.0,4.0,35,0.00,,SKC,0.00,VWS V14.01,2013-08-18 21:21:00,
2013-08-18 16:26:00,90.7,59.3,29.92,NNE,22,2.0,4.0,35,0.00,,SKC,0.00,VWS V14.01,2013-08-18 21:26:00,
2013-08-18 16:31:00,91.0,58.8,29.92,ENE,76,7.0,10.0,34,0.00,,SKC,0.00,VWS V14.01,2013-08-18 21:31:00,
2013-08-18 16:36:00,90.9,58.7,29.92,SE,132,9.0,9.0,34,0.00,,SKC,0.00,VWS V14.01,2013-08-18 21:36:00,
2013-08-18 16:41:00,90.6,58.4,29.92,ENE,69,6.0,7.0,34,0.00,,SKC,0.00,VWS V14.01,2013-08-18 21:41:00,
2013-08-18 16:46:00,90.5,58.3,29.92,ENE,66,3.0,6.0,34,0.00,,SKC,0.00,VWS V14.01,2013-08-18 21:46:00,
2013-08-18 16:51:00,90.5,58.3,29.92,NNE,31,6.0,7.0,34,0.00,,SKC,0.00,VWS V14.01,2013-08-18 21:51:00,
2013-08-18 16:56:00,90.2,58.1,29.92,ENE,67,0.0,1.0,34,0.00,,SKC,0.00,VWS V14.01,2013-08-18 21:56:00,
2013-08-18 17:01:00,90.4,58.2,29.92,SE,146,5.0,10.0,34,0.00,,SKC,0.00,VWS V14.01,2013-08-18 22:01:00,
2013-08-18 17:06:00,90.7,58.5,29.92,ENE,61,2.0,3.0,34,0.00,,SKC,0.00,VWS V14.01,2013-08-18 22:06:00,
2013-08-18 17:11:00,90.9,57.8,29.92,ESE,107,5.0,7.0,33,0.00,,SKC,0.00,VWS V14.01,2013-08-18 22:11:00,
2013-08-18 17:16:00,90.7,57.7,29.91,East,82,3.0,3.0,33,0.00,,SKC,0.00,VWS V14.01,2013-08-18 22:16:00,
2013-08-18 17:21:00,90.8,58.6,29.91,ENE,76,9.0,9.0,34,0.00,,SKC,0.00,VWS V14.01,2013-08-18 22:21:00,
2013-08-18 17:26:00,90.6,58.4,29.91,NE,53,5.0,10.0,34,0.00,,SKC,0.00,VWS V14.01,2013-08-18 22:26:00,
2013-08-18 17:31:00,90.6,58.4,29.91,East,96,4.0,10.0,34,0.00,,SKC,0.00,VWS V14.01,2013-08-18 22:31:00,
2013-08-18 17:36:00,90.8,58.6,29.91,ENE,71,6.0,7.0,34,0.00,,SKC,0.00,VWS V14.01,2013-08-18 22:36:00,
2013-08-18 17:41:00,90.6,58.4,29.91,SE,142,4.0,5.0,34,0.00,,SKC,0.00,VWS V14.01,2013-08-18 22:41:00,
2013-08-18 17:46:00,90.2,58.9,29.91,SE,128,4.0,7.0,35,0.00,,SKC,0.00,VWS V14.01,2013-08-18 22:46:00,
2013-08-18 17:51:00,90.3,59.0,29.91,SSE,165,6.0,6.0,35,0.00,,SKC,0.00,VWS V14.01,2013-08-18 22:51:00,
2013-08-18 17:56:00,90.2,58.1,29.91,SE,142,3.0,4.0,34,0.00,,SKC,0.00,VWS V14.01,2013-08-18 22:56:00,
2013-08-18 18:01:00,90.1,58.0,29.91,East,84,5.0,10.0,34,0.00,,SKC,0.00,VWS V14.01,2013-08-18 23:01:00,
2013-08-18 18:06:00,90.2,57.2,29.91,ESE,110,3.0,5.0,33,0.00,,SKC,0.00,VWS V14.01,2013-08-18 23:06:00,
2013-08-18 18:11:00,90.0,57.9,29.91,East,96,3.0,4.0,34,0.00,,SKC,0.00,VWS V14.01,2013-08-18 23:11:00,
2013-08-18 18:16:00,89.8,57.7,29.91,ENE,78,4.0,5.0,34,0.00,,SKC,0.00,VWS V14.01,2013-08-18 23:16:00,
2013-08-18 18:21:00,89.6,57.5,29.90,East,96,4.0,6.0,34,0.00,,SKC,0.00,VWS V14.01,2013-08-18 23:21:00,
2013-08-18 18:26:00,89.5,57.5,29.90,ENE,76,4.0,9.0,34,0.00,,SKC,0.00,VWS V14.01,2013-08-18 23:26:00,
2013-08-18 18:31:00,89.3,57.3,29.91,ESE,111,5.0,5.0,34,0.00,,SKC,0.00,VWS V14.01,2013-08-18 23:31:00,
2013-08-18 18:36:00,89.1,57.1,29.91,SE,142,1.0,6.0,34,0.00,,SKC,0.00,VWS V14.01,2013-08-18 23:36:00,
2013-08-18 18:41:00,88.9,56.9,29.91,ESE,117,3.0,10.0,34,0.00,,SKC,0.00,VWS V14.01,2013-08-18 23:41:00,
2013-08-18 18:46:00,88.6,56.7,29.91,ESE,113,3.0,7.0,34,0.00,,SKC,0.00,VWS V14.01,2013-08-18 23:46:00,
2013-08-18 18:51:00,88.8,56.8,29.91,East,97,4.0,4.0,34,0.00,,SKC,0.00,VWS V14.01,2013-08-18 23:51:00,
2013-08-18 18:56:00,88.8,56.8,29.91,SE,136,3.0,11.0,34,0.00,,SKC,0.00,VWS V14.01,2013-08-18 23:56:00,
2013-08-18 19:01:00,88.7,56.8,29.91,ESE,117,0.0,5.0,34,0.00,,SKC,0.00,VWS V14.01,2013-08-19 00:01:00,
2013-08-18 19:06:00,88.4,56.5,29.91,SSE,147,5.0,6.0,34,0.00,,SKC,0.00,VWS V14.01,2013-08-19 00:06:00,
2013-08-18 19:11:00,88.2,56.3,29.91,ESE,118,2.0,4.0,34,0.00,,SKC,0.00,VWS V14.01,2013-08-19 00:11:00,
2013-08-18 19:16:00,88.0,56.1,29.91,SE,126,6.0,6.0,34,0.00,,SKC,0.00,VWS V14.01,2013-08-19 00:16:00,
2013-08-18 19:21:00,87.7,56.7,29.91,East,84,3.0,4.0,35,0.00,,SKC,0.00,VWS V14.01,2013-08-19 00:21:00,
2013-08-18 19:26:00,87.6,56.6,29.91,ESE,105,1.0,3.0,35,0.00,,SKC,0.00,VWS V14.01,2013-08-19 00:26:00,
2013-08-18 19:31:00,87.4,56.4,29.91,ENE,67,3.0,4.0,35,0.00,,SKC,0.00,VWS V14.01,2013-08-19 00:31:00,
2013-08-18 19:36:00,87.1,56.2,29.91,East,93,1.0,6.0,35,0.00,,SKC,0.00,VWS V14.01,2013-08-19 00:36:00,
2013-08-18 19:41:00,86.9,56.8,29.90,ESE,102,4.0,4.0,36,0.00,,SKC,0.00,VWS V14.01,2013-08-19 00:41:00,
2013-08-18 19:46:00,86.6,56.5,29.91,East,101,6.0,6.0,36,0.00,,SKC,0.00,VWS V14.01,2013-08-19 00:46:00,
2013-08-18 19:51:00,86.2,56.9,29.90,ESE,115,3.0,6.0,37,0.00,,SKC,0.00,VWS V14.01,2013-08-19 00:51:00,
2013-08-18 19:56:00,86.0,56.7,29.90,ESE,113,3.0,4.0,37,0.00,,SKC,0.00,VWS V14.01,2013-08-19 00:56:00,
2013-08-18 20:01:00,85.7,56.5,29.91,ESE,111,2.0,5.0,37,0.00,,SKC,0.00,VWS V14.01,2013-08-19 01:01:00,
2013-08-18 20:06:00,85.3,56.1,29.91,East,93,2.0,2.0,37,0.00,,SKC,0.00,VWS V14.01,2013-08-19 01:06:00,
2013-08-18 20:11:00,85.0,56.6,29.91,East,86,2.0,4.0,38,0.00,,SKC,0.00,VWS V14.01,2013-08-19 01:11:00,
2013-08-18 20:16:00,84.6,56.2,29.91,ESE,105,3.0,4.0,38,0.00,,SKC,0.00,VWS V14.01,2013-08-19 01:16:00,
2013-08-18 20:21:00,84.3,56.7,29.91,ENE,76,0.0,4.0,39,0.00,,SKC,0.00,VWS V14.01,2013-08-19 01:21:00,
2013-08-18 20:26:00,84.0,56.4,29.91,ENE,78,2.0,3.0,39,0.00,,SKC,0.00,VWS V14.01,2013-08-19 01:26:00,
2013-08-18 20:31:00,83.7,56.1,29.91,East,96,3.0,4.0,39,0.00,,SKC,0.00,VWS V14.01,2013-08-19 01:31:00,
2013-08-18 20:36:00,83.5,56.7,29.91,East,96,4.0,4.0,40,0.00,,SKC,0.00,VWS V14.01,2013-08-19 01:36:00,
2013-08-18 20:41:00,83.3,56.5,29.91,East,98,2.0,5.0,40,0.00,,SKC,0.00,VWS V14.01,2013-08-19 01:41:00,
2013-08-18 20:46:00,83.0,56.2,29.91,East,89,5.0,5.0,40,0.00,,SKC,0.00,VWS V14.01,2013-08-19 01:46:00,
2013-08-18 20:51:00,82.8,56.0,29.91,ESE,116,5.0,5.0,40,0.00,,SKC,0.00,VWS V14.01,2013-08-19 01:51:00,
2013-08-18 20:56:00,82.6,56.5,29.91,East,83,0.0,4.0,41,0.00,,SKC,0.00,VWS V14.01,2013-08-19 01:56:00,
2013-08-18 21:01:00,82.5,56.5,29.91,ENE,69,0.0,3.0,41,0.00,,SKC,0.00,VWS V14.01,2013-08-19 02:01:00,
2013-08-18 21:06:00,82.2,56.2,29.91,ENE,76,1.0,1.0,41,0.00,,SKC,0.00,VWS V14.01,2013-08-19 02:06:00,
2013-08-18 21:11:00,81.9,55.9,29.92,ENE,76,1.0,2.0,41,0.00,,SKC,0.00,VWS V14.01,2013-08-19 02:11:00,
2013-08-18 21:16:00,81.6,56.3,29.92,East,80,1.0,2.0,42,0.00,,SKC,0.00,VWS V14.01,2013-08-19 02:16:00,
2013-08-18 21:21:00,81.4,56.1,29.92,East,79,2.0,3.0,42,0.00,,SKC,0.00,VWS V14.01,2013-08-19 02:21:00,
2013-08-18 21:26:00,81.2,56.6,29.92,East,82,1.0,2.0,43,0.00,,SKC,0.00,VWS V14.01,2013-08-19 02:26:00,
2013-08-18 21:31:00,81.0,56.4,29.92,East,83,4.0,4.0,43,0.00,,SKC,0.00,VWS V14.01,2013-08-19 02:31:00,
2013-08-18 21:36:00,80.8,56.2,29.92,ENE,74,3.0,3.0,43,0.00,,SKC,0.00,VWS V14.01,2013-08-19 02:36:00,
2013-08-18 21:41:00,80.6,56.7,29.92,ENE,67,2.0,5.0,44,0.00,,SKC,0.00,VWS V14.01,2013-08-19 02:41:00,
2013-08-18 21:46:00,80.5,56.6,29.92,ENE,68,1.0,3.0,44,0.00,,SKC,0.00,VWS V14.01,2013-08-19 02:46:00,
2013-08-18 21:51:00,80.5,56.6,29.92,ENE,76,2.0,4.0,44,0.00,,SKC,0.00,VWS V14.01,2013-08-19 02:51:00,
2013-08-18 21:56:00,80.4,56.5,29.93,ENE,78,4.0,5.0,44,0.00,,SKC,0.00,VWS V14.01,2013-08-19 02:56:00,
2013-08-18 22:01:00,80.2,56.3,29.93,ENE,72,4.0,4.0,44,0.00,,SKC,0.00,VWS V14.01,2013-08-19 03:01:00,
2013-08-18 22:06:00,80.0,56.8,29.93,ENE,70,1.0,3.0,45,0.00,,SKC,0.00,VWS V14.01,2013-08-19 03:06:00,
2013-08-18 22:11:00,79.7,56.5,29.93,ENE,71,1.0,2.0,45,0.00,,SKC,0.00,VWS V14.01,2013-08-19 03:11:00,
2013-08-18 22:16:00,79.5,56.9,29.93,ENE,70,1.0,3.0,46,0.00,,SKC,0.00,VWS V14.01,2013-08-19 03:16:00,
2013-08-18 22:21:00,79.3,56.8,29.93,ENE,68,2.0,4.0,46,0.00,,SKC,0.00,VWS V14.01,2013-08-19 03:21:00,
2013-08-18 22:26:00,79.2,56.7,29.94,ENE,71,0.0,2.0,46,0.00,,SKC,0.00,VWS V14.01,2013-08-19 03:26:00,
2013-08-18 22:31:00,79.0,56.5,29.94,ENE,72,1.0,1.0,46,0.00,,SKC,0.00,VWS V14.01,2013-08-19 03:31:00,
2013-08-18 22:36:00,78.9,56.4,29.94,East,88,1.0,1.0,46,0.00,,SKC,0.00,VWS V14.01,2013-08-19 03:36:00,
2013-08-18 22:41:00,78.8,56.9,29.94,East,82,2.0,4.0,47,0.00,,SKC,0.00,VWS V14.01,2013-08-19 03:41:00,
2013-08-18 22:46:00,78.7,56.8,29.94,East,81,0.0,1.0,47,0.00,,SKC,0.00,VWS V14.01,2013-08-19 03:46:00,
2013-08-18 22:51:00,78.5,56.6,29.94,East,83,0.0,1.0,47,0.00,,SKC,0.00,VWS V14.01,2013-08-19 03:51:00,
2013-08-18 22:56:00,78.3,56.4,29.94,East,83,0.0,0.0,47,0.00,,SKC,0.00,VWS V14.01,2013-08-19 03:56:00,
2013-08-18 23:01:00,78.0,56.7,29.94,East,83,0.0,0.0,48,0.00,,SKC,0.00,VWS V14.01,2013-08-19 04:01:00,
2013-08-18 23:06:00,77.7,56.5,29.94,East,83,1.0,1.0,48,0.00,,SKC,0.00,VWS V14.01,2013-08-19 04:06:00,
2013-08-18 23:11:00,77.5,56.3,29.94,East,84,0.0,0.0,48,0.00,,SKC,0.00,VWS V14.01,2013-08-19 04:11:00,
2013-08-18 23:16:00,77.4,56.8,29.94,East,84,0.0,0.0,49,0.00,,SKC,0.00,VWS V14.01,2013-08-19 04:16:00,
2013-08-18 23:21:00,77.1,56.5,29.94,East,84,0.0,1.0,49,0.00,,SKC,0.00,VWS V14.01,2013-08-19 04:21:00,
2013-08-18 23:26:00,77.0,56.4,29.94,East,83,0.0,0.0,49,0.00,,SKC,0.00,VWS V14.01,2013-08-19 04:26:00,
2013-08-18 23:31:00,76.9,56.3,29.94,East,84,0.0,0.0,49,0.00,,SKC,0.00,VWS V14.01,2013-08-19 04:31:00,
2013-08-18 23:36:00,76.8,56.2,29.94,East,84,0.0,0.0,49,0.00,,SKC,0.00,VWS V14.01,2013-08-19 04:36:00,
2013-08-18 23:41:00,76.6,56.6,29.94,East,84,0.0,0.0,50,0.00,,SKC,0.00,VWS V14.01,2013-08-19 04:41:00,
2013-08-18 23:46:00,76.4,56.4,29.94,East,84,0.0,0.0,50,0.00,,SKC,0.00,VWS V14.01,2013-08-19 04:46:00,
2013-08-18 23:51:00,76.1,56.7,29.94,East,84,0.0,0.0,51,0.00,,SKC,0.00,VWS V14.01,2013-08-19 04:51:00,
2013-08-18 23:56:00,75.8,56.4,29.94,East,84,0.0,0.0,51,0.00,,SKC,0.00,VWS V14.01,2013-08-19 04:56:00,